STARLETTE

Last updated on Sun Dec 07 2025 00:03:39 GMT+0000 (Coordinated Universal Time)

1 07646U 75010A 25340.64824802 -.00000141 00000+0 20682-5 0 9993 2 07646 49.8217 144.5778 0205634 146.9551 214.4385 13.82347385567901
UTC large
Height (km)
Speed (km/s)
/
Latitude / Longitude
Inclination (degrees)
Orbital Period (minutes)
Azimuth
Elevation
Range (km)
Doppler Factor

Next 0 passes for location: London (51.5072 / 0.1276)

Sorry there are no passes over London.